SCP
0 0 0 0 0 -0 -0 0 0 0 0 0 0 0 0 0 0 0 0 0 0 0 0 0 0 0 0 0 0 0 0 0 0 0 0 0 0 0 0 0 0 0 0 0
0 0 0 0 0 0 0 0 0 0 0 0 0 0 0 0 0 0 0 0 0 0 0 0 0 0 0 0 0 0 0 0 0 0 0 0 0 0 0 0 0 0 0 0
0 0 0 0 0 0 -0 0 0 0 0 0 0 0 0 0 0 0 0 0 0 0 0 0 0 0 0 0 0 0 0 0 0 0 0 0 0 0 0 0 0 0 0 0
0 0 0 0 0 0 0 0 0 0 0 0 0 0 0 0 0 0 0 0 0 0 0 0 0 0 0 0 0 0 0 0 0 0 0 0 0 0 0 0 -0 0 0 0
0 0 0 0 0 0 0 0 0 0 0 0 0 0 0 0 0 0 0 0 0 0 0 0 0 0 0 0 0 0 0 0 0 0 0 0 0 0 0 0 0 0 0 0
0 0 0 0 0 0 0 0 0 0 0 0 0 0 0 0 0 0 0 0 0 0 0 0 0 0 0 0 0 0 0 0 0 0 0 0 0 0 0 0 0 1 0 1
0 0 0 0 0 0 0 0 0 0 0 0 0 0 0 0 0 0 0 0 0 0 0 0 0 0 0 0 0 0 0 0 0 0 0 0 1 1 1 1 1 1 1 1
0 0 0 0 0 0 0 0 0 0 0 0 0 -0 0 0 0 0 0 0 0 0 0 0 0 0 0 0 0 0 0 0 0 0 0 0 0 1 1 1 1 1 1 1
0 0 0 0 0 0 0 0 0 0 0 0 0 0 0 0 0 0 0 0 0 0 0 0 0 0 0 0 0 0 0 0 0 0 0 0 1 1 1 1 1 1 1 1
0 0 0 0 0 0 0 0 0 0 0 0 0 0 0 0 0 0 0 0 0 0 0 0 0 0 0 0 0 0 0 0 0 0 0 1 1 1 1 1 1 1 1 1
0 0 0 0 0 0 0 0 0 0 0 0 0 0 0 -0 0 0 0 0 0 0 0 0 0 0 0 0 1 0 0 0 0 0 0 0 0 1 3 1 1 1 1 1
0 0 0 0 0 0 0 0 0 0 0 0 0 0 -0 -0 -0 0 0 0 0 0 0 0 0 0 0 0 0 0 1 1 1 1 2 1 1 1 0 1 1 1 1 1
0 0 0 0 0 0 0 0 0 0 0 0 0 0 0 0 0 0 0 0 0 0 0 0 0 0 0 0 0 0 0 0 1 1 1 0 0 0 0 0 1 1 0 0
0 0 0 0 0 0 0 0 0 0 0 0 0 0 0 0 0 0 0 0 0 0 0 0 0 0 0 0 0 0 0 0 0 0 0 0 0 0 0 0 0 0 0 0
0 0 0 0 0 0 0 0 0 0 0 0 0 0 0 0 0 0 0 0 0 -0 -0 0 0 0 0 0 0 0 0 0 0 0 0 0 0 0 0 0 0 0 0 0
0 0 0 0 0 0 0 0 0 0 0 0 0 0 0 0 0 0 0 0 0 0 0 0 0 0 0 0 0 0 0 0 0 0 0 0 0 0 0 0 0 0 0 0
0 0 0 0 0 0 0 0 0 0 0 0 0 0 0 0 0 0 0 0 0 0 0 0 0 0 0 0 0 0 0 0 0 0 0 0 0 0 0 0 0 0 0 0
0 0 0 0 0 0 0 0 0 0 0 0 0 0 0 0 0 0 0 0 0 0 0 0 0 0 0 0 0 0 0 0 0 0 0 0 0 0 0 0 0 0 0 0
0 0 0 0 0 0 0 0 -0 0 0 0 0 0 0 0 0 0 0 0 0 0 0 0 0 0 0 0 0 0 0 0 0 0 0 0 0 0 0 0 0 0 0 0
0 0 0 0 0 0 0 0 0 0 0 0 0 0 0 0 0 0 0 0 0 0 0 0 0 0 0 0 0 0 0 0 0 0 0 0 0 0 0 0 0 0 0 0
0 0 0 0 0 0 0 0 0 0 0 0 0 0 0 0 0 0 0 0 0 0 0 0 0 0 0 0 0 0 0 0 0 0 0 0 0 0 0 0 0 0 0 0
0 0 0 0 0 0 0 0 0 0 0 0 0 0 0 0 0 0 0 0 0 0 0 0 0 0 0 0 0 0 0 0 0 0 0 0 0 0 0 0 0 0 0 0
0 0 0 0 0 0 0 0 0 0 0 0 0 0 0 0 0 0 0 0 0 0 0 0 0 0 0 0 0 0 0 0 0 0 0 0 0 0 0 0 0 0 0 0
0 0 0 0 0 0 0 0 0 0 0 0 0 0 0 0 0 0 0 0 0 0 0 0 0 0 0 0 0 0 0 0 0 0 0 0 0 0 0 0 0 0 0 0
0 0 0 0 0 0 0 0 0 0 0 0 0 0 0 0 0 0 0 0 0 0 0 0 0 0 0 0 0 0 0 0 0 0 0 0 0 0 0 0 0 0 0 0
0 0 0 0 0 0 0 0 0 0 0 0 0 0 0 0 0 0 0 0 0 0 0 0 0 0 0 0 0 0 0 0 0 0 0 0 0 0 0 0 0 0 0 0
0 0 0 0 0 0 0 0 0 0 0 0 0 0 0 0 0 0 0 0 0 0 0 0 0 0 0 0 0 0 0 0 0 0 0 0 0 0 0 0 0 0 0 0
Wind_Speed_500mb
31 32 34 37 43 44 37 10 7 8 25 16 12 21 19 6 23 25 20 13 15 17 18 16 11 12 2 2 16 33 39 22 28 28 11 8 18 31 40 23 28 24 19 21
26 27 30 32 36 42 44 19 9 7 2 10 15 15 20 23 24 24 19 23 17 16 14 10 8 4 7 5 12 14 20 25 27 34 17 14 22 26 23 20 17 24 19 13
24 23 28 29 29 33 35 10 6 9 16 10 10 5 16 21 17 26 32 33 27 25 23 19 15 9 6 3 4 2 10 14 28 29 34 29 38 33 29 28 21 27 26 13
23 21 25 26 26 26 23 7 3 7 5 18 18 9 17 21 19 20 15 24 35 30 30 28 25 24 12 8 7 5 10 13 18 29 18 15 25 37 30 33 36 20 21 15
21 19 22 21 22 22 7 10 9 11 20 12 13 6 10 22 18 23 21 26 27 30 34 30 19 21 12 8 5 3 2 3 8 13 14 22 24 20 27 28 12 13 9 22
22 20 19 15 17 16 6 11 10 9 6 9 9 3 12 15 13 18 30 19 21 23 33 31 12 7 3 5 7 4 3 2 9 13 9 19 21 6 18 12 7 6 14 15
22 18 18 14 12 11 6 12 10 12 9 9 5 17 29 31 28 27 20 15 17 7 3 9 14 14 9 7 3 6 4 3 5 3 14 24 16 8 3 12 11 8 11 10
20 19 18 15 13 11 10 10 5 9 13 11 12 19 25 33 20 16 18 3 9 8 6 16 12 13 12 10 2 3 4 10 5 12 19 9 10 9 7 9 15 12 10 14
23 23 20 19 14 11 12 10 8 8 16 5 13 19 18 19 14 7 1 6 8 5 5 3 9 12 8 13 15 3 5 7 13 7 20 20 19 10 2 7 13 12 13 16
25 23 19 18 14 11 11 10 9 7 17 14 12 6 12 15 16 8 5 14 7 5 5 5 6 4 10 9 12 5 6 8 21 19 18 9 8 5 6 17 8 13 15 17
25 23 20 19 14 10 10 11 12 10 17 32 24 18 17 23 12 8 22 11 4 5 2 7 4 6 2 10 5 6 9 7 10 10 16 17 6 8 8 10 6 13 15 19
25 24 20 18 16 11 10 5 9 12 16 22 29 38 37 34 28 20 9 9 9 12 6 6 3 9 7 9 9 6 7 8 6 9 9 13 15 18 12 10 11 16 17 19
29 25 25 21 21 12 11 11 12 13 20 34 25 12 8 10 12 20 10 1 9 7 7 9 3 7 7 10 6 4 7 2 3 9 10 14 15 15 15 16 16 16 18 19
28 24 25 25 22 17 10 12 12 9 12 11 1 5 8 11 11 11 16 16 11 8 6 6 6 6 2 1 6 8 11 11 6 20 17 17 13 12 11 12 13 14 15 17
26 24 24 24 22 20 14 19 18 15 7 13 23 26 11 12 16 11 10 9 10 12 12 8 3 3 5 0 6 13 3 10 5 9 13 14 16 14 11 11 13 15 17 20
26 24 22 24 22 16 9 7 9 16 17 10 8 6 8 12 14 11 8 6 8 13 10 2 4 1 8 10 4 8 11 14 10 11 15 22 13 11 10 9 14 18 20 22
31 26 21 20 20 21 8 4 10 7 14 7 12 8 11 16 13 10 10 6 6 8 4 6 2 6 6 5 6 12 11 15 16 15 16 14 9 5 9 11 13 17 16 22
30 26 21 20 16 18 18 17 17 13 8 10 8 6 11 21 17 12 9 9 8 5 2 7 10 8 6 4 12 9 9 10 11 9 4 7 5 6 6 6 6 6 9 14
33 26 19 10 7 10 11 25 16 14 13 11 8 9 9 22 10 5 10 7 8 4 6 5 7 8 7 12 7 7 4 7 9 1 0 7 7 3 2 1 0 4 6 12
37 29 10 6 7 15 5 8 4 9 14 14 13 15 7 22 20 15 9 9 5 9 5 6 8 6 8 7 7 5 3 4 6 6 6 4 5 2 1 2 1 2 6 10
38 14 10 15 15 12 6 8 11 14 11 18 18 23 7 15 16 12 8 6 7 7 9 7 8 9 17 11 9 9 10 9 8 5 2 1 2 2 3 3 4 3 5 7
30 19 26 20 10 10 10 9 12 13 11 16 17 19 14 12 7 12 10 6 6 4 14 7 7 11 19 16 12 9 8 7 6 4 2 4 6 4 4 5 5 5 2 8
42 10 11 13 13 11 13 23 15 11 12 17 20 14 15 9 9 3 8 10 6 13 8 7 6 20 18 14 10 8 6 5 5 5 5 7 6 4 5 5 3 3 4 8
10 14 9 13 12 13 12 17 19 14 8 24 29 19 11 8 9 4 8 5 7 8 8 9 10 21 20 13 10 9 6 6 5 6 7 9 8 8 8 7 3 1 5 11
9 13 11 18 25 13 20 22 11 8 12 30 19 8 11 8 7 6 5 9 8 5 3 6 19 24 20 16 11 10 8 6 4 2 2 3 4 7 5 4 2 2 7 12
10 15 13 14 16 22 21 19 23 14 20 26 21 8 9 11 5 11 12 8 8 8 7 18 25 22 20 17 13 10 9 6 3 4 4 5 5 8 8 7 7 7 8 11
12 19 28 20 17 14 9 17 23 19 28 16 16 15 10 5 9 8 4 6 8 15 18 22 21 24 21 17 11 10 8 4 8 10 10 12 9 9 11 12 8 4 9 11
Wind_Direction_500mb
292 303 316 328 336 339 339 337 263 333 138 205 212 236 218 288 257 236 257 283 281 274 306 305 276 221 277 131 198 198 216 220 236 205 186 287 236 222 215 228 214 240 284 282
279 297 313 329 338 342 345 317 273 237 215 239 212 214 246 247 257 242 246 245 252 278 288 293 259 253 94 59 205 192 174 224 227 238 198 204 232 230 239 244 281 261 263 239
280 290 310 324 336 338 340 307 247 165 217 264 297 255 232 238 228 259 256 257 255 256 264 245 280 260 147 351 68 172 209 237 234 236 232 215 204 226 217 223 226 232 221 173
272 286 306 320 332 337 341 260 38 343 197 220 250 273 303 276 260 230 248 239 238 242 246 255 248 254 247 180 151 171 201 243 232 255 272 258 217 217 205 215 233 261 252 132
273 282 296 315 332 336 354 304 336 324 281 281 248 184 256 281 279 243 240 232 260 221 234 238 266 246 248 315 135 147 192 244 250 218 232 224 220 236 196 209 221 228 217 114
264 273 281 312 327 337 326 311 306 297 251 226 245 238 292 307 303 258 250 278 277 239 225 228 280 285 330 9 333 348 317 297 230 199 209 172 174 162 194 144 170 278 201 60
249 257 264 289 314 320 320 310 313 280 270 254 311 321 305 300 287 269 299 297 228 25 270 192 229 229 222 223 80 311 290 299 272 114 188 215 71 117 274 126 108 73 92 52
246 255 258 281 294 309 307 312 304 292 282 320 271 340 303 307 283 250 261 346 314 306 192 213 192 198 209 169 72 227 272 270 204 246 229 93 154 158 173 218 116 46 29 22
244 247 250 260 283 305 310 314 274 281 301 99 332 321 300 308 334 226 113 19 341 274 238 200 231 201 195 189 161 95 163 245 254 198 254 229 77 114 18 279 164 49 24 21
235 239 236 250 277 299 306 288 275 267 276 281 332 349 322 335 306 290 359 348 342 356 298 223 231 199 333 242 230 172 195 227 229 219 245 106 50 320 229 217 80 38 31 24
225 225 236 240 270 291 300 279 279 232 273 279 276 279 297 327 359 350 341 286 188 205 171 295 131 248 157 272 19 292 254 243 193 239 242 217 31 136 275 35 51 20 20 13
221 225 231 239 255 281 296 311 285 271 258 266 286 278 281 272 274 290 294 307 279 344 283 198 269 219 193 314 230 178 227 339 3 340 50 81 68 77 75 47 36 26 26 21
216 225 230 236 247 263 285 281 288 296 286 297 259 267 248 259 237 218 285 232 338 317 317 326 347 258 294 198 254 205 128 98 124 194 107 98 91 82 67 57 46 35 30 22
218 230 237 237 244 244 284 293 282 279 291 280 171 307 281 218 217 204 241 284 296 292 313 295 293 271 251 68 59 286 34 169 112 97 117 115 91 75 62 50 41 28 17 9
221 230 230 234 239 243 268 306 278 248 251 320 303 298 242 222 199 212 229 250 282 267 244 228 268 320 246 85 271 120 216 122 148 82 94 74 92 91 75 57 32 9 352 346
224 224 228 233 236 228 258 313 339 239 223 291 281 331 208 189 182 195 209 263 266 245 261 225 149 218 288 214 160 77 95 85 63 115 98 102 104 74 50 34 15 5 359 354
220 220 227 232 239 221 196 222 320 349 202 265 279 217 185 182 186 208 232 252 241 255 221 214 214 161 258 219 181 136 119 107 95 112 126 119 110 68 10 9 11 11 24 28
209 210 219 225 237 238 223 252 289 260 246 256 270 244 197 187 199 208 203 212 202 192 250 200 233 171 234 231 113 129 113 121 117 106 123 129 149 336 330 333 351 26 38 37
196 199 204 197 220 222 214 243 281 242 211 293 249 260 181 175 188 169 176 217 207 127 220 158 227 185 222 92 140 117 93 169 154 38 231 216 233 276 334 245 259 328 359 36
183 167 148 173 205 173 113 211 234 193 205 230 258 259 217 189 180 177 181 205 179 197 113 160 243 133 104 130 119 99 93 161 187 228 162 179 214 289 277 266 311 72 15 40
161 148 153 151 150 136 215 222 216 191 221 213 235 242 223 200 197 168 229 193 173 221 136 250 189 178 155 154 127 106 103 117 134 144 142 304 277 259 218 177 163 101 4 15
164 147 130 135 168 198 221 209 203 215 228 180 202 206 218 159 201 201 183 215 197 209 145 230 227 101 147 158 146 128 120 127 122 114 123 161 159 145 154 156 152 120 35 19
140 125 163 183 179 217 220 200 192 200 191 186 179 174 166 161 198 181 196 206 190 136 207 220 49 141 160 166 172 168 152 147 144 145 151 174 170 145 176 168 119 76 13 8
151 166 185 216 190 223 207 224 197 194 198 180 181 158 179 154 176 176 203 70 186 219 229 202 141 166 163 166 169 174 174 182 177 176 176 175 166 173 147 149 141 345 357 357
167 210 221 211 226 232 212 224 247 240 186 171 164 148 185 155 158 204 131 182 218 227 232 111 147 161 165 168 162 165 163 149 141 162 231 211 196 213 170 137 130 44 25 6
225 231 240 222 222 233 225 219 223 209 184 178 191 166 192 187 202 193 199 202 212 153 139 135 152 162 171 171 168 161 170 163 210 214 248 260 239 221 186 165 147 97 44 32
225 225 224 250 266 248 237 199 214 187 182 191 179 189 171 123 206 196 226 225 97 133 142 153 164 167 165 159 156 170 181 219 280 276 254 233 213 171 154 153 143 121 80 58
Wind_Speed_850mb
31 32 34 37 43 44 37 10 7 8 25 16 12 21 19 6 23 25 20 13 15 17 18 16 11 12 2 2 16 33 39 22 28 28 11 8 18 31 40 23 28 24 19 21
26 27 30 32 36 42 44 19 9 7 2 10 15 15 20 23 24 24 19 23 17 16 14 10 8 4 7 5 12 14 20 25 27 34 17 14 22 26 23 20 17 24 19 13
24 23 28 29 29 33 35 10 6 9 16 10 10 5 16 21 17 26 32 33 27 25 23 19 15 9 6 3 4 2 10 14 28 29 34 29 38 33 29 28 21 27 26 13
23 21 25 26 26 26 23 7 3 7 5 18 18 9 17 21 19 20 15 24 35 30 30 28 25 24 12 8 7 5 10 13 18 29 18 15 25 37 30 33 36 20 21 15
21 19 22 21 22 22 7 10 9 11 20 12 13 6 10 22 18 23 21 26 27 30 34 30 19 21 12 8 5 3 2 3 8 13 14 22 24 20 27 28 12 13 9 22
22 20 19 15 17 16 6 11 10 9 6 9 9 3 12 15 13 18 30 19 21 23 33 31 12 7 3 5 7 4 3 2 9 13 9 19 21 6 18 12 7 6 14 15
22 18 18 14 12 11 6 12 10 12 9 9 5 17 29 31 28 27 20 15 17 7 3 9 14 14 9 7 3 6 4 3 5 3 14 24 16 8 3 12 11 8 11 10
20 19 18 15 13 11 10 10 5 9 13 11 12 19 25 33 20 16 18 3 9 8 6 16 12 13 12 10 2 3 4 10 5 12 19 9 10 9 7 9 15 12 10 14
23 23 20 19 14 11 12 10 8 8 16 5 13 19 18 19 14 7 1 6 8 5 5 3 9 12 8 13 15 3 5 7 13 7 20 20 19 10 2 7 13 12 13 16
25 23 19 18 14 11 11 10 9 7 17 14 12 6 12 15 16 8 5 14 7 5 5 5 6 4 10 9 12 5 6 8 21 19 18 9 8 5 6 17 8 13 15 17
25 23 20 19 14 10 10 11 12 10 17 32 24 18 17 23 12 8 22 11 4 5 2 7 4 6 2 10 5 6 9 7 10 10 16 17 6 8 8 10 6 13 15 19
25 24 20 18 16 11 10 5 9 12 16 22 29 38 37 34 28 20 9 9 9 12 6 6 3 9 7 9 9 6 7 8 6 9 9 13 15 18 12 10 11 16 17 19
29 25 25 21 21 12 11 11 12 13 20 34 25 12 8 10 12 20 10 1 9 7 7 9 3 7 7 10 6 4 7 2 3 9 10 14 15 15 15 16 16 16 18 19
28 24 25 25 22 17 10 12 12 9 12 11 1 5 8 11 11 11 16 16 11 8 6 6 6 6 2 1 6 8 11 11 6 20 17 17 13 12 11 12 13 14 15 17
26 24 24 24 22 20 14 19 18 15 7 13 23 26 11 12 16 11 10 9 10 12 12 8 3 3 5 0 6 13 3 10 5 9 13 14 16 14 11 11 13 15 17 20
26 24 22 24 22 16 9 7 9 16 17 10 8 6 8 12 14 11 8 6 8 13 10 2 4 1 8 10 4 8 11 14 10 11 15 22 13 11 10 9 14 18 20 22
31 26 21 20 20 21 8 4 10 7 14 7 12 8 11 16 13 10 10 6 6 8 4 6 2 6 6 5 6 12 11 15 16 15 16 14 9 5 9 11 13 17 16 22
30 26 21 20 16 18 18 17 17 13 8 10 8 6 11 21 17 12 9 9 8 5 2 7 10 8 6 4 12 9 9 10 11 9 4 7 5 6 6 6 6 6 9 14
33 26 19 10 7 10 11 25 16 14 13 11 8 9 9 22 10 5 10 7 8 4 6 5 7 8 7 12 7 7 4 7 9 1 0 7 7 3 2 1 0 4 6 12
37 29 10 6 7 15 5 8 4 9 14 14 13 15 7 22 20 15 9 9 5 9 5 6 8 6 8 7 7 5 3 4 6 6 6 4 5 2 1 2 1 2 6 10
38 14 10 15 15 12 6 8 11 14 11 18 18 23 7 15 16 12 8 6 7 7 9 7 8 9 17 11 9 9 10 9 8 5 2 1 2 2 3 3 4 3 5 7
30 19 26 20 10 10 10 9 12 13 11 16 17 19 14 12 7 12 10 6 6 4 14 7 7 11 19 16 12 9 8 7 6 4 2 4 6 4 4 5 5 5 2 8
42 10 11 13 13 11 13 23 15 11 12 17 20 14 15 9 9 3 8 10 6 13 8 7 6 20 18 14 10 8 6 5 5 5 5 7 6 4 5 5 3 3 4 8
10 14 9 13 12 13 12 17 19 14 8 24 29 19 11 8 9 4 8 5 7 8 8 9 10 21 20 13 10 9 6 6 5 6 7 9 8 8 8 7 3 1 5 11
9 13 11 18 25 13 20 22 11 8 12 30 19 8 11 8 7 6 5 9 8 5 3 6 19 24 20 16 11 10 8 6 4 2 2 3 4 7 5 4 2 2 7 12
10 15 13 14 16 22 21 19 23 14 20 26 21 8 9 11 5 11 12 8 8 8 7 18 25 22 20 17 13 10 9 6 3 4 4 5 5 8 8 7 7 7 8 11
12 19 28 20 17 14 9 17 23 19 28 16 16 15 10 5 9 8 4 6 8 15 18 22 21 24 21 17 11 10 8 4 8 10 10 12 9 9 11 12 8 4 9 11
Wind_Direction_850mb
292 303 316 328 336 339 339 337 263 333 138 205 212 236 218 288 257 236 257 283 281 274 306 305 276 221 277 131 198 198 216 220 236 205 186 287 236 222 215 228 214 240 284 282
279 297 313 329 338 342 345 317 273 237 215 239 212 214 246 247 257 242 246 245 252 278 288 293 259 253 94 59 205 192 174 224 227 238 198 204 232 230 239 244 281 261 263 239
280 290 310 324 336 338 340 307 247 165 217 264 297 255 232 238 228 259 256 257 255 256 264 245 280 260 147 351 68 172 209 237 234 236 232 215 204 226 217 223 226 232 221 173
272 286 306 320 332 337 341 260 38 343 197 220 250 273 303 276 260 230 248 239 238 242 246 255 248 254 247 180 151 171 201 243 232 255 272 258 217 217 205 215 233 261 252 132
273 282 296 315 332 336 354 304 336 324 281 281 248 184 256 281 279 243 240 232 260 221 234 238 266 246 248 315 135 147 192 244 250 218 232 224 220 236 196 209 221 228 217 114
264 273 281 312 327 337 326 311 306 297 251 226 245 238 292 307 303 258 250 278 277 239 225 228 280 285 330 9 333 348 317 297 230 199 209 172 174 162 194 144 170 278 201 60
249 257 264 289 314 320 320 310 313 280 270 254 311 321 305 300 287 269 299 297 228 25 270 192 229 229 222 223 80 311 290 299 272 114 188 215 71 117 274 126 108 73 92 52
246 255 258 281 294 309 307 312 304 292 282 320 271 340 303 307 283 250 261 346 314 306 192 213 192 198 209 169 72 227 272 270 204 246 229 93 154 158 173 218 116 46 29 22
244 247 250 260 283 305 310 314 274 281 301 99 332 321 300 308 334 226 113 19 341 274 238 200 231 201 195 189 161 95 163 245 254 198 254 229 77 114 18 279 164 49 24 21
235 239 236 250 277 299 306 288 275 267 276 281 332 349 322 335 306 290 359 348 342 356 298 223 231 199 333 242 230 172 195 227 229 219 245 106 50 320 229 217 80 38 31 24
225 225 236 240 270 291 300 279 279 232 273 279 276 279 297 327 359 350 341 286 188 205 171 295 131 248 157 272 19 292 254 243 193 239 242 217 31 136 275 35 51 20 20 13
221 225 231 239 255 281 296 311 285 271 258 266 286 278 281 272 274 290 294 307 279 344 283 198 269 219 193 314 230 178 227 339 3 340 50 81 68 77 75 47 36 26 26 21
216 225 230 236 247 263 285 281 288 296 286 297 259 267 248 259 237 218 285 232 338 317 317 326 347 258 294 198 254 205 128 98 124 194 107 98 91 82 67 57 46 35 30 22
218 230 237 237 244 244 284 293 282 279 291 280 171 307 281 218 217 204 241 284 296 292 313 295 293 271 251 68 59 286 34 169 112 97 117 115 91 75 62 50 41 28 17 9
221 230 230 234 239 243 268 306 278 248 251 320 303 298 242 222 199 212 229 250 282 267 244 228 268 320 246 85 271 120 216 122 148 82 94 74 92 91 75 57 32 9 352 346
224 224 228 233 236 228 258 313 339 239 223 291 281 331 208 189 182 195 209 263 266 245 261 225 149 218 288 214 160 77 95 85 63 115 98 102 104 74 50 34 15 5 359 354
220 220 227 232 239 221 196 222 320 349 202 265 279 217 185 182 186 208 232 252 241 255 221 214 214 161 258 219 181 136 119 107 95 112 126 119 110 68 10 9 11 11 24 28
209 210 219 225 237 238 223 252 289 260 246 256 270 244 197 187 199 208 203 212 202 192 250 200 233 171 234 231 113 129 113 121 117 106 123 129 149 336 330 333 351 26 38 37
196 199 204 197 220 222 214 243 281 242 211 293 249 260 181 175 188 169 176 217 207 127 220 158 227 185 222 92 140 117 93 169 154 38 231 216 233 276 334 245 259 328 359 36
183 167 148 173 205 173 113 211 234 193 205 230 258 259 217 189 180 177 181 205 179 197 113 160 243 133 104 130 119 99 93 161 187 228 162 179 214 289 277 266 311 72 15 40
161 148 153 151 150 136 215 222 216 191 221 213 235 242 223 200 197 168 229 193 173 221 136 250 189 178 155 154 127 106 103 117 134 144 142 304 277 259 218 177 163 101 4 15
164 147 130 135 168 198 221 209 203 215 228 180 202 206 218 159 201 201 183 215 197 209 145 230 227 101 147 158 146 128 120 127 122 114 123 161 159 145 154 156 152 120 35 19
140 125 163 183 179 217 220 200 192 200 191 186 179 174 166 161 198 181 196 206 190 136 207 220 49 141 160 166 172 168 152 147 144 145 151 174 170 145 176 168 119 76 13 8
151 166 185 216 190 223 207 224 197 194 198 180 181 158 179 154 176 176 203 70 186 219 229 202 141 166 163 166 169 174 174 182 177 176 176 175 166 173 147 149 141 345 357 357
167 210 221 211 226 232 212 224 247 240 186 171 164 148 185 155 158 204 131 182 218 227 232 111 147 161 165 168 162 165 163 149 141 162 231 211 196 213 170 137 130 44 25 6
225 231 240 222 222 233 225 219 223 209 184 178 191 166 192 187 202 193 199 202 212 153 139 135 152 162 171 171 168 161 170 163 210 214 248 260 239 221 186 165 147 97 44 32
225 225 224 250 266 248 237 199 214 187 182 191 179 189 171 123 206 196 226 225 97 133 142 153 164 167 165 159 156 170 181 219 280 276 254 233 213 171 154 153 143 121 80 58